Regional Weather Roundup
Issued by NWS

Home | Current Version | Previous Version | Text Only | Print | Product List | Glossary On
Versions: 1 2 3 4 5 6 7 8 9 10 11 12 13 14 15 16 17 18 19 20 21 22 23 24 25 26 27
000
ASUS45 KREV 200010
RWRNV
NEVADA REGIONAL WEATHER ROUNDUP
NATIONAL WEATHER SERVICE RENO NV
400 PM PST SUN FEB 19 2017

NOTE: "FAIR" INDICATES FEW OR NO CLOUDS BELOW 12,000 FEET WITH NO
SIGNIFICANT WEATHER AND/OR OBSTRUCTIONS TO VISIBILITY.

NVZ001-003-004-200100-
WESTERN NEVADA

CITY           SKY/WX    TMP DP  RH WIND       PRES   REMARKS
RENO           PTSUNNY   52  32  46 S20G35    29.73R
6HR MIN TEMP:  49; 6HR MAX TEMP:  58;

MINDEN         FAIR      48  30  49 S22G29    29.77R
PYRAMID LAKE     N/A     54 N/A N/A S16         N/A
FALLON         PTSUNNY   59  25  27 SW21      29.71R
6HR MIN TEMP:  52; 6HR MAX TEMP:  62;

LOVELOCK       MOSUNNY   55  29  36 SW23G30   29.70R
6HR MIN TEMP:  49; 6HR MAX TEMP:  60;

HAWTHORNE      MOSUNNY   61  19  20 S7G14     29.73R
$$

NVZ002-CAZ072-073-200100-
NORTHERN AND CENTRAL SIERRA

CITY           SKY/WX    TMP DP  RH WIND       PRES   REMARKS
S. LAKE TAHOE  LGT SNOW  35  33  92 S6        29.79R FOG
6HR MIN TEMP:  36; 6HR MAX TEMP:  41; 6HR PCP:  0.02;

SQUAW VLY 8000   N/A     30  30 100 S10         N/A
MAMMOTH LAKES  FAIR      40  29  65 SE8       29.86R
6HR MIN TEMP:  37; 6HR MAX TEMP:  46;

BRIDGEPORT       N/A     38  29  70 SW5       29.79R
$$

NVZ030-031-036-200100-
NORTHERN NEVADA

CITY           SKY/WX    TMP DP  RH WIND       PRES   REMARKS
ELKO           SUNNY     52  22  30 W21G28    29.74R
6HR MIN TEMP:  44; 6HR MAX TEMP:  54;

WINNEMUCCA     MOSUNNY   55  28  35 SW12      29.70R
6HR MIN TEMP:  49; 6HR MAX TEMP:  56;

WENDOVER       SUNNY     55  27  33 W13       29.73R
$$

NVZ035-037-200100-
CENTRAL NEVADA

CITY           SKY/WX    TMP DP  RH WIND       PRES   REMARKS
ELY            SUNNY     48  27  44 SW6       29.80S
6HR MIN TEMP:  41; 6HR MAX TEMP:  49;

EUREKA           N/A     50  24  36 W17G26    29.77
6HR MIN TEMP:  40; 6HR MAX TEMP:  53;

$$

NVZ013-014-200100-
SOUTH CENTRAL NEVADA

CITY           SKY/WX    TMP DP  RH WIND       PRES   REMARKS
TONOPAH        PTSUNNY   47  35  63 S14G22    29.85R
6HR MIN TEMP:  39; 6HR MAX TEMP:  49;

$$

NVZ017-020-022-200100-
SOUTHERN NEVADA

CITY           SKY/WX    TMP DP  RH WIND       PRES   REMARKS
LAS VEGAS      PTSUNNY   61  37  41 SW10      29.85R
6HR MIN TEMP:  57; 6HR MAX TEMP:  63;

N. LAS VEGAS   CLOUDY    60  41  49 SW12      29.86R
6HR MIN TEMP:  51; 6HR MAX TEMP:  61;

NELLIS AFB     PTSUNNY   59  48  66 E8        29.86R
6HR MIN TEMP:  55; 6HR MAX TEMP:  62;

HENDERSON      PTSUNNY   60  39  45 SW15      29.89R
6HR MIN TEMP:  57; 6HR MAX TEMP:  61;

MERCURY        PTSUNNY   55  41  59 SW16      29.87R
6HR MIN TEMP:  51; 6HR MAX TEMP:  56;

$$




USA.gov is the U.S. government's official web portal to all federal, state and local government web resources and services.